www.pogodaiklimat.ru

Погода и климат >> Архив погоды >> Россия >> Магаданская область >> Мыс Алевина


ПОГОДА на Мысе Алевина

  • Прогноз погоды на Мысе Алевина
  • Монитор погоды на Мысе Алевина
  • Климат города

АРХИВ ПОГОДЫ на Мысе Алевина

Время (UTC), дата Ветер
(напр.,м/с)
 
Видим.   Явления Облачность Т
(С)
Тd
(С)
f
(%)
Тe
(С)
Тes
(С)
Комфортность P
(гПа)
Po
(гПа)
Тmin
(С)
Tmax
(С)
R
(мм)
S
(см)
06 17.03 СЗ 3 50 км 3/0
[Ci fib]
-0.9 -8.7 55 -5 -4 1013.3 1005.0
09 17.03 С 1 50 км ясно +0.3 -4.6 70 -1 -1 1013.7 1005.4 +0.4
12 17.03 СВ 2 50 км ясно -1.0 -6.7 65 -4 -4 1013.3 1005.0
15 17.03 С 4 50 км 4/0
[Ac trans]
-3.5 -5.6 85 -10 -10 1013.5 1005.1
18 17.03 С 1 50 км 8/0
[Ci fib]
-2.4 -7.2 70 -4 -4 1012.3 1004.1
21 17.03 С 1 50 км 8/0
[Ac trans Ci fib]
-2.6 -9.1 61 -4 -4 1012.5 1004.3 -3.8 31
00 18.03 З 3
{10}
50 км 8/3 1000 м
[Sc As trans Cs]
+0.8 -7.3 55 -3 -1 1011.9 1003.8
03 18.03 СВ 9-13
{13}
50 км позёмок {метель} 8/3 1000 м
[Sc Cs]
+2.2 -6.5 53 -4 -4 1010.7 1002.6
06 18.03 СВ 5 50 км {метель} 8/6 600 м
[Cu Sc Cs]
+1.9 -5.6 58 -3 -3 1010.1 1002.0
09 18.03 СВ 3
{10}
50 км 10/8 600 м
[Cu Sc Cs]
+0.8 -6.4 59 -3 -3 1010.2 1002.1 +2.6
12 18.03 СВ 3
{10}
50 км 10/8 600 м
[Cu Sc Cs]
0.0 -7.1 59 -4 -4 1009.8 1001.6
15 18.03 СВ 4
{11}
50 км 10/9 600 м
[Cu Sc Cs]
-0.3 -5.5 68 -5 -5 1008.9 1000.7
18 18.03 СЗ 1
{10}
50 км 10/6 600 м
[Cu Sc Cs]
-0.7 -5.6 69 -2 -2 1008.7 1000.5
21 18.03 В 7-11
{11}
50 км 9/8 1000 м
[Sc Ci fib]
+0.2 -7.3 57 -6 -6 1008.5 1000.3 -0.7 30
00 19.03 С 7
{11}
50 км 6/6 600 м
[Cu Sc Ci fib]
+0.5 -6.9 58 -6 -5 1008.1 999.9 -1.2
03 19.03 ЮЗ 3
{10}
50 км 6/4 600 м
[Sc Ac trans]
+0.2 -5.7 65 -4 -2 1007.4 999.2
06 19.03 С 1 50 км 6/4 600 м
[Cu Sc Ac trans]
+1.2 -9.5 45 0 +1 1007.0 998.9
09 19.03 СВ 8-11
{11}
50 км 4/3 600 м
[Cu Sc Ac trans]
-1.8 -9.7 55 -9 -9 1007.4 999.2 +1.6
12 19.03 СВ 7-11
{14}
50 км {метель} 3/3 1000 м
[Sc]
-2.0 -9.1 58 -9 -9 1007.4 999.2
15 19.03 В 2
{10}
50 км 4/4 1000 м
[Sc]
-2.4 -10.2 55 -6 -6 1006.9 998.7
18 19.03 СЗ 2 50 км 3/3 1000 м
[Sc]
-2.9 -6.7 75 -7 -7 1006.4 998.2
21 19.03 З 2 50 км 10/10 1000 м
[Sc]
-3.6 -6.1 83 -8 -8 1006.5 998.2 -3.8 29
00 20.03 З 3 50 км 10/10 1000 м
[Sc]
-2.5 -5.1 82 -8 -8 1006.4 998.2
03 20.03 СЗ 2 50 км 10/10 1000 м
[Sc]
-1.9 -4.7 81 -6 -6 1005.7 997.5
06 20.03 СЗ 3 50 км 10/10 1000 м
[Sc]
-2.4 -3.3 94 -8 -8 1005.4 997.2
09 20.03 С 2 50 км 10/10 1000 м
[Sc]
-2.4 -4.0 89 -6 -6 1005.7 997.5 -1.6
12 20.03 СЗ 2 50 км 10/10 1000 м
[Sc]
-1.7 -4.1 84 -6 -6 1006.3 998.1
15 20.03 В 11-15
{16}
50 км 8/8 1000 м
[Sc]
+1.1 -4.5 66 -7 -7 1005.5 997.4
18 20.03 В 12-16
{18}
50 км {метель} 6/6 1000 м
[Sc]
+1.4 -4.8 63 -6 -6 1005.9 997.8
21 20.03 В 8-12
{17}
50 км 9/9 1000 м
[Sc]
+1.9 -5.3 59 -4 -4 1007.1 999.0 -2.4 31
00 21.03 В 10-14
{15}
50 км 9/9 1000 м
[Sc]
+2.6 -6.4 51 -4 -4 1007.9 999.8
03 21.03 В 9-13
{15}
50 км 10/10 1000 м
[Sc]
+3.2 -5.1 54 -3 -3 1008.6 1000.5
06 21.03 СВ 3 50 км 10/10 1000 м
[Sc]
+2.7 -3.1 66 -1 -1 1009.4 1001.3
09 21.03 С 2 50 км 10/10 1000 м
[Sc]
-0.3 -2.7 84 -4 -4 1010.4 1002.2 +3.2
12 21.03 С 3 50 км 3/3 1000 м
[Sc]
-2.4 -3.3 94 -8 -8 1011.4 1003.2
15 21.03 С 2 50 км ясно -2.0 -4.1 86 -6 -6 1011.4 1003.2
18 21.03 С 2 50 км ясно -3.1 -4.4 91 -7 -7 1011.2 1002.9
21 21.03 СЗ 2 50 км 8/0
[Cs]
-3.9 -5.8 87 -8 -8 1011.5 1003.2 -4.0 28
00 22.03 СЗ 2 50 км 3/1 1000 м
[Sc Cs]
+1.0 -3.5 72 -2 +2 1011.5 1003.4
03 22.03 СЗ 2 50 км 3/1 1000 м
[Sc Cs]
-1.4 -4.7 78 -5 0 1011.5 1003.3
06 22.03 З 2 50 км 4/1 1000 м
[Sc Cs]
-1.1 -4.1 80 -5 -3 1011.7 1003.5
09 22.03 СЗ 4 50 км 3/1 1000 м
[Sc Cs]
-2.8 -4.8 86 -9 -9 1012.2 1004.0 +1.5
12 22.03 СЗ 4 50 км 3/3 1000 м
[Sc]
-3.1 -4.8 88 -9 -9 1011.8 1003.6
15 22.03 С 2 50 км ясно -3.2 -4.9 88 -7 -7 1011.3 1003.1
18 22.03 СЗ 1 50 км ясно -2.4 -4.3 87 -5 -5 1010.7 1002.5
21 22.03 С 2 50 км 9/9 1000 м
[Sc]
-3.5 -5.6 85 -8 -8 1011.3 1003.0 -3.6 28
00 23.03 С 2 50 км 10/3 1000 м
[Sc As trans]
-1.4 -4.7 78 -5 -4 1011.8 1003.6 -3.9
03 23.03 СЗ 2 50 км 10/0
[As trans]
-0.4 -4.5 74 -4 -1 1012.0 1003.8
06 23.03 З 2 50 км 10/8 1000 м
[Sc As trans]
+0.8 -4.5 68 -2 -2 1012.1 1004.0
09 23.03 З 2 50 км 10/10 1000 м
[Sc]
-1.2 -2.8 89 -5 -5 1013.6 1005.3 +0.9
12 23.03 С 2 50 км 10/10 1000 м
[Sc]
-1.8 -3.6 87 -6 -6 1014.3 1006.0
15 23.03 С 2 50 км 10/10 1000 м
[Sc]
-1.8 -3.9 86 -6 -6 1014.3 1006.0
18 23.03 СЗ 2 50 км 8/8 1000 м
[Sc]
-1.3 -4.3 80 -5 -5 1014.2 1005.9
21 23.03 СВ 4 50 км 10/10 1000 м
[Sc]
-0.8 -7.7 59 -6 -6 1014.3 1006.0 -2.3 28
00 24.03 СВ 4 50 км 10/6 1000 м
[Sc As trans]
+0.4 -9.3 48 -4 -4 1014.0 1005.7
03 24.03 З 3
{10}
50 км 10/8 1000 м
[Sc Cs]
+0.5 -7.3 56 -3 -3 1013.7 1005.4

 

Местоположение метеостанции Мыс Алевина (Магаданская область, Россия): широта 58.83 долгота 151.30 высота над уровнем моря 65 м.

В архиве по умолчанию представлена погода на Мысе Алевина за последнюю неделю. Архивные данные за месяц целиком и за предыдущие месяцы, начиная с января 2011 года, Вы можете получить, выбрав интересующий диапазон дат из раскрывающегося списка и нажав кнопку "Ввод!".

Внимание! Время в таблицах - всемирное. Для получения местного времени необходимо прибавить поправку, которая на Мысе Алевина равна 11 ч.

Смотрите также архив погоды в соседних городах и на ближайших метеорологических станциях:

Погода в Оле (Магаданская область, Россия) (81 км)
Погода в Магадане (Магаданская область, Россия) (87 км)
Погода в Армани (Магаданская область, Россия) (115 км)
Погода на Мысе Братьев (Магаданская область, Россия) (119 км)
Погода на Остров Спафарьева (Магаданская область, Россия) (137 км)
Погода в Палатке (Магаданская область, Россия) (143 км)
Погода в Талоне (Магаданская область, Россия) (185 км)
Погода в Брохово (Магаданская область, Россия) (188 км)
Погода в Мадауне (Магаданская область, Россия) (200 км)
Погода в Талае (Магаданская область, Россия) (262 км)

Пояснения к столбцам:

Ветер - указаны скорость ветра в м/с - средняя за 10 мин, порывы в срок и между сроками (в фигурных скобках) и направление, откуда дует ветер: С - северный, СВ - северо-восточный, В - восточный, ЮВ - юго-восточный, Ю - южный, ЮЗ - юго-западный, З - западный, СЗ - северо-западный.
Видимость - горизонтальная дальность видимости в метрах или километрах. При видимости от 1 до 10 км при отсутствии осадков обычно наблюдается дымка, при ухудшении видимости до 1 км и менее - туман. В сухую погоду видимость может ухудшаться дымом, пылью или мглою.
Явления - указаны атмосферные явления, наблюдавшиеся в срок или в последний час перед сроком; фигурными скобками обозначены явления, наблюдавшиеся между сроками (за 1-3 часа до срока); квадратными скобками обозначены град или гололедные отложения с указанием их диаметра в мм.
Облачность - указаны через наклонную черту общая и нижняя облачность в баллах и высота нижней границы облаков в метрах; квадратными скобками обозначены формы облаков: Ci - перистые, Cs - перисто-слоистые, Cc - перисто-кучевые, Ac - высококучевые, As - высокослоистые, Sc - слоисто-кучевые, Ns - слоисто-дождевые, Cu - кучевые, Cb - кучево-дождевые. Подробнее классификацию облаков см. в Атласе облаков (PDF).
T - Температура воздуха - температура, измеренная на высоте 2 м над землей.
Td - Температура точки росы - температура, при понижении до которой содержащийся в воздухе водяной пар достигнет насыщения.
f - Относительная влажность воздуха - влажноcть воздуха, измеренная на высоте 2 м над землей.
Te - Эффективная температура - температура, которую ощущает одетый по сезону человек в тени. Характеристика душности погоды. При расчете учитывается влияние влажности воздуха и скорости ветра на теплоощущения человека.
Tes - Эффективная температура на солнце - температура, которую ощущает человек, с поправкой на солнечный нагрев. Характеристика знойности погоды. Зависит от высоты солнца над горизонтом, облачности и скорости ветра. Ночью, в пасмурную погоду, а также при ветре 12 м/с и более поправка равна нулю.
P - Атмосферное давление - приведенное к уровню моря атмосферное давление.
Po - Атмосферное давление - измеренное на уровне метеостанции атмосферное давление.
Tmin - Минимальная температура - минимум температуры воздуха на высоте 2 м над землей.
Tmax - Максимальная температура - максимум температуры воздуха на высоте 2 м над землей.
R - Количество осадков - Количество выпавших осадков, мм. При наведении курсора мыши на число - период времени, за который выпало указанное количество осадков.
S - Снежный покров - Высота снежного покрова, см. При наведении курсора мыши на число - состояние снежного покрова и степень покрытия местности в баллах.